Le nostre stazioni meteo in Italia

Pubblicità
Il mio iltempo24.it
Ferrara, Italia (16138): Temperatura & dewpoint: 13.04.2019 17:00:00 - 19.04.2019 17:00:00 (CEST)Ferrara, Italia (16138): velocità del vento: 13.04.2019 17:00:00 - 19.04.2019 17:00:00 (CEST)Ferrara, Italia (16138): direzione del vento: 13.04.2019 17:00:00 - 19.04.2019 17:00:00 (CEST)Ferrara, Italia (16138): reduced air pressure: 13.04.2019 17:00:00 - 19.04.2019 17:00:00 (CEST)Ferrara, Italia (16138): visibility: 13.04.2019 17:00:00 - 19.04.2019 17:00:00 (CEST)
Data & Tempo tt [°C] td [°C] ff [km/h] ff [kn] dd ppp [hPa] vv [km]
19.04.2019 17:00:00 21,4 6,1 2 1 E 1028,2 10
19.04.2019 16:00:00 21,0 6,0 - - - - 10
19.04.2019 15:00:00 21,0 6,0 - - - - 10
19.04.2019 14:00:00 21,0 8,0 2 1 ENE 1029,3 10
19.04.2019 13:00:00 21,0 9,0 - - - - 10
19.04.2019 12:00:00 19,0 10,0 - - - - 10
19.04.2019 11:00:00 18,2 11,1 2 1 NNE 1030,0 10
19.04.2019 10:00:00 16,0 10,0 - - - - 10
19.04.2019 09:00:00 12,0 9,0 - - - - 10
19.04.2019 08:00:00 7,6 5,9 0 0 N 1029,0 10
19.04.2019 07:00:00 - - - - - - -
19.04.2019 06:00:00 - - - - - - -
19.04.2019 05:00:00 - - - - - - -
19.04.2019 04:00:00 - - - - - - -
19.04.2019 03:00:00 - - - - - - -
19.04.2019 02:00:00 - - - - - - -
19.04.2019 01:00:00 - - - - - - -
19.04.2019 00:00:00 - - - - - - -
18.04.2019 23:00:00 - - - - - - -
18.04.2019 22:00:00 - - - - - - -
18.04.2019 21:00:00 - - - - - - -
18.04.2019 20:00:00 16,6 3,7 0 0 N 1025,0 10
18.04.2019 19:00:00 18,0 4,0 - - - - 10
18.04.2019 18:00:00 20,0 5,0 - - - - 10
18.04.2019 17:00:00 21,0 5,8 9 5 E 1024,6 10
18.04.2019 16:00:00 21,0 6,0 - - - - 10
18.04.2019 15:00:00 21,0 6,0 - - - - 10
18.04.2019 14:00:00 21,2 7,4 9 5 E 1025,0 10
18.04.2019 13:00:00 20,0 7,0 - - - - 10
18.04.2019 12:00:00 19,0 8,0 - - - - 10
18.04.2019 11:00:00 18,0 9,4 5 3 NNE 1025,0 10
18.04.2019 10:00:00 16,0 11,0 - - - - 6
18.04.2019 09:00:00 13,0 11,0 - - - - 4,5
18.04.2019 08:00:00 10,2 9,6 4 2 O 1024,0 3,0
18.04.2019 07:00:00 - - - - - - -
18.04.2019 06:00:00 - - - - - - -
18.04.2019 05:00:00 - - - - - - -
18.04.2019 04:00:00 - - - - - - -
18.04.2019 03:00:00 - - - - - - -
18.04.2019 02:00:00 - - - - - - -
18.04.2019 01:00:00 - - - - - - -
18.04.2019 00:00:00 - - - - - - -
17.04.2019 23:00:00 - - - - - - -
17.04.2019 22:00:00 - - - - - - -
17.04.2019 21:00:00 - - - - - - -
17.04.2019 20:00:00 17,6 6,2 0 0 N 1019,5 10
17.04.2019 19:00:00 20,0 6,0 - - - - 10
17.04.2019 18:00:00 21,0 7,0 - - - - 10
17.04.2019 17:00:00 21,4 7,6 0 0 N 1019,7 10
17.04.2019 16:00:00 22,0 7,0 - - - - 10
17.04.2019 15:00:00 23,0 9,0 - - - - 10
17.04.2019 14:00:00 22,0 8,9 0 0 N 1020,7 10
17.04.2019 13:00:00 22,0 11,0 - - - - 10
17.04.2019 12:00:00 20,0 11,0 - - - - 10
17.04.2019 11:00:00 17,4 11,0 0 0 N 1020,9 10
17.04.2019 10:00:00 13,0 10,0 - - - - 8
17.04.2019 09:00:00 10,0 8,0 - - - - 8
17.04.2019 08:00:00 6,4 5,0 4 2 N 1020,1 6
17.04.2019 07:00:00 - - - - - - -
17.04.2019 06:00:00 - - - - - - -
17.04.2019 05:00:00 - - - - - - -
17.04.2019 04:00:00 - - - - - - -
17.04.2019 03:00:00 - - - - - - -
17.04.2019 02:00:00 - - - - - - -
17.04.2019 01:00:00 - - - - - - -
17.04.2019 00:00:00 - - - - - - -
16.04.2019 23:00:00 - - - - - - -
16.04.2019 22:00:00 - - - - - - -
16.04.2019 21:00:00 - - - - - - -
16.04.2019 20:00:00 15,0 3,5 4 2 ESE 1018,4 10
16.04.2019 19:00:00 18,0 4,0 - - - - 10
16.04.2019 18:00:00 19,0 4,0 5 3 NNE - 10
16.04.2019 17:00:00 19,6 4,5 4 2 ESE 1018,8 10
16.04.2019 16:00:00 21,0 6,0 9 5 SSO - 10
16.04.2019 15:00:00 21,0 7,0 9 5 S - 10
16.04.2019 14:00:00 20,8 7,4 8 4 SE 1019,6 10
16.04.2019 13:00:00 20,0 7,0 5 3 ESE - 10
16.04.2019 12:00:00 18,0 9,0 5 3 S - 10
16.04.2019 11:00:00 16,0 9,9 4 2 SE 1020,4 10
16.04.2019 10:00:00 12,0 8,0 - - - - 8
16.04.2019 09:00:00 8,0 6,0 4 2 SE - 8
16.04.2019 08:00:00 5,0 4,1 4 2 S 1020,1 8
16.04.2019 07:00:00 - - - - - - -
16.04.2019 06:00:00 - - - - - - -
16.04.2019 05:00:00 - - - - - - -
16.04.2019 04:00:00 - - - - - - -
16.04.2019 03:00:00 - - - - - - -
16.04.2019 02:00:00 - - - - - - -
16.04.2019 01:00:00 - - - - - - -
16.04.2019 00:00:00 - - - - - - -
15.04.2019 23:00:00 - - - - - - -
15.04.2019 22:00:00 - - - - - - -
15.04.2019 21:00:00 - - - - - - -
15.04.2019 20:00:00 16,0 3,1 4 2 ENE 1018,9 20
15.04.2019 19:00:00 17,0 3,0 0 0 N - 10
15.04.2019 18:00:00 18,0 5,0 0 0 N - 10
15.04.2019 17:00:00 18,0 5,3 11 6 E 1019,1 20
15.04.2019 16:00:00 18,0 7,0 11 6 NE - 10
15.04.2019 15:00:00 18,0 7,0 11 6 ENE - 10
15.04.2019 14:00:00 17,4 6,9 13 7 NE 1020,0 20
15.04.2019 13:00:00 18,0 8,0 15 8 NNE - 10
15.04.2019 12:00:00 15,0 8,0 11 6 NE - 10
15.04.2019 11:00:00 14,8 8,3 13 7 NNE 1020,4 20
15.04.2019 10:00:00 12,0 7,0 - - - - 10
15.04.2019 09:00:00 9,0 6,0 - - - - 10
15.04.2019 08:00:00 6,4 4,9 0 0 N 1018,6 10
15.04.2019 07:00:00 - - - - - - -
15.04.2019 06:00:00 - - - - - - -
15.04.2019 05:00:00 - - - - - - -
15.04.2019 04:00:00 - - - - - - -
15.04.2019 03:00:00 - - - - - - -
15.04.2019 02:00:00 - - - - - - -
15.04.2019 01:00:00 - - - - - - -
15.04.2019 00:00:00 - - - - - - -
14.04.2019 23:00:00 - - - - - - -
14.04.2019 22:00:00 - - - - - - -
14.04.2019 21:00:00 - - - - - - -
14.04.2019 20:00:00 10,0 4,4 0 0 N 1013,3 10
14.04.2019 19:00:00 11,0 4,0 - - - - 10
14.04.2019 18:00:00 12,0 4,0 15 8 ENE - 10
14.04.2019 17:00:00 12,0 4,0 16 9 NE 1012,3 10
14.04.2019 16:00:00 12,0 5,0 18 10 ENE - 10
14.04.2019 15:00:00 12,0 5,0 15 8 ENE - 10
14.04.2019 14:00:00 13,0 5,4 16 9 ENE 1012,3 10
14.04.2019 13:00:00 11,0 6,0 9 5 S - 8
14.04.2019 12:00:00 11,0 7,0 - - - - 3,0
14.04.2019 11:00:00 9,4 6,8 0 0 N 1012,3 3,0
14.04.2019 10:00:00 9,0 6,0 - - - - 3,0
14.04.2019 09:00:00 7,0 6,0 0 0 N - 3,0
14.04.2019 08:00:00 5,8 4,9 0 0 N 1012,1 1,5
14.04.2019 07:00:00 - - - - - - -
14.04.2019 06:00:00 - - - - - - -
14.04.2019 05:00:00 - - - - - - -
14.04.2019 04:00:00 - - - - - - -
14.04.2019 03:00:00 - - - - - - -
14.04.2019 02:00:00 - - - - - - -
14.04.2019 01:00:00 - - - - - - -
14.04.2019 00:00:00 - - - - - - -
13.04.2019 23:00:00 - - - - - - -
13.04.2019 22:00:00 - - - - - - -
13.04.2019 21:00:00 - - - - - - -
13.04.2019 20:00:00 10,0 5,4 0 0 N 1013,9 10
13.04.2019 19:00:00 12,0 6,0 - - - - 10
13.04.2019 18:00:00 13,0 6,0 4 2 E - 10
13.04.2019 17:00:00 13,6 6,9 8 4 E 1014,5 10

tt = Temperatura
td = dewpoint
ff = velocità del vento
dd = direzione del vento
ppp = reduced air pressure
vv = visibility

Stazioni seguenti

WeatherPro
AMSI
MeteoEarth